Location: Acheville
(50.3840°N, 2.8827°E)
Time: 12:28:11
(UTC+00:00)

USA 215 - Pass Details

Date: 24 October 2021
Orbit: 1099 x 1109 km, 123.0° (Epoch: 20 November)

Event Time Altitude Azimuth Distance (km) Brightness Sun altitude
Exits shadow 20:55:56 41° 322° (NW) 1,560 4.3 -40.1°
Drops below altitude 10° 21:00:23 10° 293° (WNW) 2,965 6.1 -40.7°
Sets 21:02:56 0° 289° (WNW) 3,925 6.9 -41.0°
